Flag for Poland Weather past 2 weeks in Tychy, Poland

Now
73 °F

Sunny.


Feels Like: 77 °F
Forecast: 56 / 86 °F
Wind: 1 mph from North

Location: Katowice Airport

Current Time: Aug 2, 2015 at 10:30:57 AM

Latest Report: Aug 2, 2015 at 10:00 AM


Visibility: 10 mi

Pressure: 30.12 "Hg

Humidity: 47%

Dew point: 52 °F

Location of TychyLocation

Historic Weather in Tychy — Graph

°F

Tychy temperature yesterday

Maximum temperature yesterday: 77 °F (at 2:00 PM)
Minimum temperature yesterday: 41 °F (at 5:00 AM)
Average temperature yesterday: 62 °F

Past Weeks' High & Low Weather Summary

 TemperatureHumidityPressure
High91 °F (Jul 25, 1:00 PM)100% (Jul 19, 2:00 AM)30.12 "Hg (Jul 19, 2:00 AM)
Low41 °F (Jul 31, 3:30 AM)24% (Aug 1, 2:00 PM)29.65 "Hg (Jul 27, 6:30 PM)
Average69 °F63%29.91 "Hg
* Reported Jul 18 9:00 AM — Aug 2 9:30 AM, Tychy, Weather by CustomWeather, © 2015

Note: Actual official high and low records may vary slightly from our data, if they occured in-between our weather recording intervals... More about our weather records

Advertising

Tychy weather history for previous 24 hours

 ConditionsComfort  
Time TempWeatherWind HumidityBarometerVisibility
9:30 AM
Sun, Aug 2
70 °FSunny.2 mph50%30.12 "Hg10 mi
9:00 AM66 °FPassing clouds.3 mph56%30.12 "HgN/A
8:30 AM63 °FSunny.2 mph64%30.12 "Hg10 mi
8:00 AM61 °FSunny.5 mph63%30.09 "Hg10 mi
7:30 AM61 °FSunny.5 mph63%30.09 "Hg10 mi
7:00 AM59 °FSunny.5 mph68%30.09 "Hg10 mi
6:30 AM59 °FSunny.5 mph68%30.09 "Hg10 mi
6:00 AM57 °FClear.5 mph72%30.09 "Hg10 mi
5:30 AM55 °FClear.3 mph72%30.09 "Hg10 mi
5:00 AM55 °FClear.2 mph72%30.09 "Hg10 mi
4:30 AM55 °FClear.2 mph72%30.09 "Hg10 mi
4:00 AM57 °FClear.3 mph67%30.09 "Hg10 mi
3:30 AM57 °FClear.3 mph67%30.09 "Hg10 mi
3:00 AM59 °FClear.7 mph63%30.09 "Hg10 mi
2:30 AM61 °FClear.6 mph59%30.09 "Hg10 mi
2:00 AM61 °FClear.7 mph59%30.09 "Hg10 mi
1:30 AM63 °FClear.7 mph56%30.09 "Hg10 mi
1:00 AM63 °FClear.6 mph56%30.09 "Hg10 mi
12:00 AM64 °FClear.10 mph52%30.09 "Hg10 mi
11:30 PM
Sat, Aug 1
61 °FClear.8 mph59%30.09 "Hg10 mi
11:00 PM63 °FClear.7 mph56%30.09 "Hg10 mi
10:30 PM63 °FClear.8 mph56%30.09 "Hg10 mi
10:00 PM63 °FClear.7 mph56%30.09 "Hg10 mi
9:30 PM64 °FClear.8 mph49%30.07 "Hg10 mi
9:00 PM70 °FSunny.9 mph40%30.07 "Hg10 mi
8:30 PM70 °FSunny.12 mph40%30.07 "Hg10 mi
8:00 PM72 °FSunny.8 mph38%30.07 "Hg10 mi
7:30 PM73 °FSunny.5 mph36%30.07 "Hg10 mi
7:00 PM75 °FSunny.7 mph31%30.07 "Hg10 mi
6:30 PM75 °FSunny.9 mph31%30.07 "Hg10 mi
6:00 PM77 °FSunny.5 mph30%30.04 "Hg10 mi
5:00 PM77 °FPassing clouds.8 mph28%30.07 "HgN/A
4:30 PM77 °FSunny.2 mph28%30.07 "Hg10 mi
4:00 PM77 °FSunny.7 mph26%30.07 "Hg10 mi
3:30 PM77 °FPassing clouds.8 mph26%30.07 "HgN/A
3:00 PM77 °FPassing clouds.10 mph26%30.07 "HgN/A
2:30 PM77 °FSunny.8 mph24%30.07 "Hg10 mi
2:00 PM77 °FSunny.9 mph24%30.09 "Hg10 mi
1:30 PM73 °FSunny.8 mph29%30.09 "Hg10 mi
1:00 PM75 °FSunny.7 mph27%30.09 "Hg10 mi
12:30 PM75 °FPassing clouds.8 mph25%30.09 "HgN/A
12:00 PM73 °FSunny.6 mph33%30.09 "Hg10 mi
11:30 AM72 °FSunny.9 mph38%30.09 "Hg10 mi
11:00 AM72 °FSunny.7 mph38%30.12 "Hg10 mi
10:30 AM70 °FSunny.9 mph40%30.12 "Hg10 mi
10:00 AM68 °FSunny.9 mph40%30.12 "Hg10 mi
Weather by CustomWeather, © 2015

See weather overviewHow to use our weather pages